LEMUR-2-NOGUESCORREIG

Last updated on Sat Apr 08 2017 00:17:57 GMT+0000 (Coordinated Universal Time)

1 41996U 17008BA 17096.83211415 .00002917 00000-0 13059-3 0 9993 2 41996 97.5040 158.3700 0010727 100.1147 260.1300 15.22032629 6900
UTC large
Height (km)
Speed (km/s)
/
Latitude / Longitude
Inclination (degrees)
Orbital Period (minutes)
Azimuth
Elevation
Range (km)
Doppler Factor

Next 0 passes for location: London (51.5072 / 0.1276)

Sorry there are no passes over London.
LEMUR-2-NOGUESCORREIG